Showing default

LEMUR 2 KRISH, 64561

Orbit data source: Space-Track

LEMUR 2 KRISH, 64561 is an American payload satellite in SSO that was launched on Mon, 23 Jun 2025 UTC via an FALCON 9 launch vehicle from the Air Force Western Test Range (AFWTR). Payload-class satellites include a variety of spacecraft equipped with specific instruments for various scientific and technological missions. These include communications satellites like Starlink; space stations such as the ISS; scientific satellites like the Hubble; Earth observation satellites from companies like Planet Labs, Umbra, and HawkEye 360; GPS; miniature CubeSats for education and research; and military/defense satellites.

Loading next visibility...
Identifier
64561, 2025-135AK
Orbit
SSO
Country
Flag of USUS
Related business
Manufacturer
Spire/Glasgow
Mission
Operational Commercial Com/MetRO
Bus & Motor
CUBESAT 6U, Unknown motor
Mass
10 kg wet, 10 kg dry
Launch date (UTC)
2025-06-23 (5 months ago)
Launch vehicle
FALCON 9
Launch site
Air Force Western Test Range (AFWTR)
Object type
Payload
Rocket body
Debris
Shape & HBR
Box, 0.1 m
Radar Cross Section
0.080 m², Small (<0.1 m²)

Expand to show TLE details & history
Last TLE update: 7 hours ago

TLE from 7 hours ago
0 LEMUR 2 KRISH
1 64561U 25135AK  25312.10421368  .00009431  00000-0  91443-3 0  9997
2 64561  97.7608  64.2604 0001100 105.9683 254.1657 14.92891139 20893
Epoch: 2025-11-08T02:30Z
TLE epoch observation values (Epoch: 2025-11-08T02:30:04.061Z)
Latitude
-0.00011°
Longitude
-20.79512°
Altitude
592.179 km
Speed
7.564 km/s
True Right ascension
04h 17m 02s
True Declination
0° 00' 00"
Sunlit
Object was in full shadow at epoch
Visualization orbit readout
Latitude
Unknown
Longitude
Unknown
Altitude
Unknown
Speed
Unknown
Apparent Right ascension
Unknown
Apparent Declination
Unknown
Sunlit
N/A
Visualization observer readout
Local Sidereal Time
05:41:08
Azimuth
Unknown
Elevation
Unknown
Doppler factor
Unknown
Orbital elements
Apogee altitude
586.71 km
Perigee altitude
585.178 km
Semi-major axis
6,964.081 km
Eccentricity
0.00011
Inclination
97.7608°
RAAN
64.2604°
Arg. of periapsis
105.9683°
True anomaly
254.15357°
Mean anomaly
254.1657°
Eccentric anomaly
254.15964°
Mean motion
3.73463 °/min
Orbital period
96.4 mins
BSTAR
0.00091443
Loading maneuver chart data...
Computing Atmospheric mass density...
Loading historical data...
Loading historical data...
Loading historical data...
Loading historical data...
Loading historical data...
Loading historical data...
Loading historical data...

Documentation

Showing up to 5 results
|